Location: Wien
(48.2082°N, 16.3738°E)
Time: 11:51:09
(UTC+02:00)

Tiros 1 despin weight - Pass Details

Date: 16 September 2024
Orbit: 573 x 615 km, 48.2° (Epoch: 06 October)

Event Time Altitude Azimuth Distance (km) Brightness Sun altitude
Rises 02:35:26 0° 193° (SSW) 2,850 - -34.3°
Reaches altitude 10° 02:38:44 10° 167° (SSE) 1,960 - -34.0°
Maximum altitude 02:41:01 14° 137° (SE) 1,730 - -33.8°
Drops below altitude 10° 02:43:18 10° 106° (ESE) 1,975 - -33.5°
Exits shadow 02:44:09 - 98° (E) 2,163 ? -33.5°
Sets 02:46:38 0° 81° (E) 2,889 ? -33.2°
